TimeCST,TemperatureF,Dew PointF,Humidity,Sea Level PressureIn,VisibilityMPH,Wind Direction,Wind SpeedMPH,Gust SpeedMPH,PrecipitationIn,Events,Conditions,WindDirDegrees,DateUTC
12:14 AM,37.4,30.2,75,29.89,10.0,SSE,17.3,-,N/A,,Clear,150,2012-11-08 06:14:00
12:33 AM,37.4,30.2,75,29.88,10.0,SSE,18.4,-,N/A,,Clear,150,2012-11-08 06:33:00
1:14 AM,37.4,30.2,75,29.86,10.0,SSE,15.0,-,N/A,,Clear,150,2012-11-08 07:14:00
1:33 AM,37.4,30.2,75,29.86,10.0,SSE,17.3,-,N/A,,Clear,150,2012-11-08 07:33:00
1:54 AM,37.4,30.2,75,29.85,10.0,SSE,17.3,-,N/A,,Clear,150,2012-11-08 07:54:00
2:14 AM,37.4,30.2,75,29.84,10.0,SE,17.3,-,N/A,,Clear,140,2012-11-08 08:14:00
2:33 AM,37.4,30.2,75,29.84,10.0,SSE,13.8,-,N/A,,Clear,150,2012-11-08 08:33:00
2:54 AM,35.6,30.2,81,29.83,10.0,SSE,15.0,-,N/A,,Clear,150,2012-11-08 08:54:00
3:14 AM,37.4,30.2,75,29.83,10.0,SSE,11.5,-,N/A,,Clear,150,2012-11-08 09:14:00
3:33 AM,35.6,30.2,81,29.84,10.0,SE,9.2,-,N/A,,Clear,130,2012-11-08 09:33:00
3:54 AM,35.6,30.2,81,29.84,10.0,SE,10.4,-,N/A,,Clear,140,2012-11-08 09:54:00
4:14 AM,33.8,30.2,87,29.83,10.0,SE,10.4,-,N/A,,Clear,130,2012-11-08 10:14:00
4:33 AM,33.8,30.2,87,29.83,10.0,SE,9.2,-,N/A,,Clear,140,2012-11-08 10:33:00
4:54 AM,33.8,30.2,87,29.83,10.0,SE,9.2,-,N/A,,Clear,140,2012-11-08 10:54:00
5:14 AM,33.8,30.2,87,29.84,10.0,SE,8.1,-,N/A,,Clear,130,2012-11-08 11:14:00
5:33 AM,35.6,30.2,81,29.83,10.0,SSE,9.2,-,N/A,,Clear,150,2012-11-08 11:33:00
5:54 AM,35.6,30.2,81,29.85,10.0,SE,3.5,-,N/A,,Clear,140,2012-11-08 11:54:00
6:14 AM,35.6,30.2,81,29.85,10.0,ESE,3.5,-,N/A,,Clear,120,2012-11-08 12:14:00
6:33 AM,33.8,30.2,87,29.85,10.0,SE,4.6,-,N/A,,Clear,140,2012-11-08 12:33:00
6:54 AM,33.8,30.2,87,29.86,10.0,SE,5.8,-,N/A,,Clear,130,2012-11-08 12:54:00
7:13 AM,33.8,30.2,87,29.86,10.0,SE,5.8,-,N/A,,Clear,140,2012-11-08 13:13:00
7:34 AM,33.8,30.2,87,29.87,10.0,SE,5.8,-,N/A,,Clear,130,2012-11-08 13:34:00
7:53 AM,33.8,30.2,87,29.88,10.0,SE,3.5,-,N/A,,Clear,140,2012-11-08 13:53:00
8:13 AM,35.6,30.2,81,29.88,10.0,SE,3.5,-,N/A,,Clear,140,2012-11-08 14:13:00
8:34 AM,35.6,30.2,81,29.89,10.0,Calm,Calm,-,N/A,,Clear,0,2012-11-08 14:34:00
8:53 AM,37.4,32.0,81,29.89,10.0,Calm,Calm,-,N/A,,Clear,0,2012-11-08 14:53:00
9:13 AM,39.2,33.8,81,29.89,10.0,Calm,Calm,-,N/A,,Clear,0,2012-11-08 15:13:00
9:34 AM,42.8,33.8,70,29.90,10.0,Calm,Calm,-,N/A,,Clear,0,2012-11-08 15:34:00
9:53 AM,44.6,32.0,61,29.90,10.0,WSW,4.6,-,N/A,,Clear,250,2012-11-08 15:53:00
10:13 AM,46.4,32.0,57,29.90,10.0,WNW,5.8,-,N/A,,Clear,290,2012-11-08 16:13:00
10:34 AM,48.2,33.8,58,29.90,10.0,WNW,6.9,-,N/A,,Clear,290,2012-11-08 16:34:00
10:54 AM,50.0,32.0,50,29.91,10.0,NNW,8.1,-,N/A,,Clear,340,2012-11-08 16:54:00
11:13 AM,50.0,32.0,50,29.91,10.0,NNW,11.5,-,N/A,,Clear,330,2012-11-08 17:13:00
11:34 AM,51.8,33.8,50,29.90,10.0,NNW,10.4,-,N/A,,Clear,330,2012-11-08 17:34:00
11:53 AM,51.8,33.8,50,29.90,10.0,NNW,8.1,-,N/A,,Clear,340,2012-11-08 17:53:00
12:14 PM,51.8,33.8,50,29.90,10.0,North,15.0,-,N/A,,Clear,350,2012-11-08 18:14:00
12:34 PM,53.6,33.8,47,29.91,10.0,North,11.5,19.6,N/A,,Clear,350,2012-11-08 18:34:00
12:53 PM,51.8,35.6,54,29.91,10.0,NNW,18.4,-,N/A,,Clear,340,2012-11-08 18:53:00
1:14 PM,51.8,35.6,54,29.92,10.0,North,17.3,-,N/A,,Clear,350,2012-11-08 19:14:00
1:34 PM,51.8,37.4,58,29.92,10.0,North,17.3,23.0,N/A,,Clear,360,2012-11-08 19:34:00
1:53 PM,51.8,37.4,58,29.93,10.0,North,17.3,24.2,N/A,,Clear,360,2012-11-08 19:53:00
2:14 PM,50.0,37.4,62,29.94,10.0,North,19.6,24.2,N/A,,Scattered Clouds,360,2012-11-08 20:14:00
2:34 PM,48.2,37.4,66,29.96,10.0,NNW,20.7,-,N/A,,Scattered Clouds,340,2012-11-08 20:34:00
2:53 PM,46.4,35.6,66,29.97,10.0,NNW,17.3,25.3,N/A,,Scattered Clouds,340,2012-11-08 20:53:00
3:14 PM,44.6,35.6,71,29.98,10.0,North,18.4,21.9,N/A,,Mostly Cloudy,360,2012-11-08 21:14:00
3:34 PM,44.6,35.6,71,29.98,10.0,North,17.3,21.9,N/A,,Mostly Cloudy,10,2012-11-08 21:34:00
3:53 PM,42.8,35.6,76,29.98,10.0,North,16.1,20.7,N/A,,Mostly Cloudy,360,2012-11-08 21:53:00
4:14 PM,42.8,35.6,76,29.99,10.0,North,17.3,24.2,N/A,,Overcast,360,2012-11-08 22:14:00
4:34 PM,42.8,35.6,76,29.99,10.0,North,17.3,-,N/A,,Mostly Cloudy,350,2012-11-08 22:34:00
4:53 PM,41.0,35.6,81,29.99,10.0,North,20.7,25.3,N/A,,Mostly Cloudy,350,2012-11-08 22:53:00
5:14 PM,41.0,33.8,76,30.00,10.0,North,19.6,26.5,N/A,,Mostly Cloudy,350,2012-11-08 23:14:00
5:34 PM,41.0,33.8,76,30.00,10.0,North,15.0,23.0,N/A,,Overcast,350,2012-11-08 23:34:00
5:53 PM,41.0,33.8,76,30.01,10.0,North,15.0,-,N/A,,Mostly Cloudy,360,2012-11-08 23:53:00
6:14 PM,41.0,33.8,76,30.01,10.0,North,15.0,-,N/A,,Mostly Cloudy,10,2012-11-09 00:14:00
6:34 PM,39.2,33.8,81,30.02,10.0,North,12.7,-,N/A,,Scattered Clouds,360,2012-11-09 00:34:00
6:53 PM,41.0,33.8,76,30.02,10.0,North,13.8,-,N/A,,Mostly Cloudy,10,2012-11-09 00:53:00
7:14 PM,41.0,33.8,76,30.02,10.0,North,13.8,-,N/A,,Overcast,360,2012-11-09 01:14:00
7:34 PM,39.2,33.8,81,30.02,10.0,North,13.8,-,N/A,,Overcast,360,2012-11-09 01:34:00
7:53 PM,39.2,33.8,81,30.02,10.0,North,9.2,-,N/A,,Overcast,360,2012-11-09 01:53:00
8:14 PM,39.2,33.8,81,30.02,10.0,North,10.4,-,N/A,,Overcast,350,2012-11-09 02:14:00
8:34 PM,39.2,33.8,81,30.02,10.0,North,10.4,-,N/A,,Overcast,360,2012-11-09 02:34:00
8:53 PM,39.2,33.8,81,30.03,10.0,North,8.1,-,N/A,,Overcast,360,2012-11-09 02:53:00
9:14 PM,39.2,33.8,81,30.03,10.0,North,8.1,-,N/A,,Overcast,360,2012-11-09 03:14:00
9:34 PM,39.2,33.8,81,30.04,10.0,North,9.2,-,N/A,,Mostly Cloudy,360,2012-11-09 03:34:00
9:53 PM,39.2,33.8,81,30.03,10.0,North,9.2,-,N/A,,Mostly Cloudy,10,2012-11-09 03:53:00
10:14 PM,39.2,33.8,81,30.03,10.0,North,9.2,-,N/A,,Mostly Cloudy,10,2012-11-09 04:14:00
10:34 PM,39.2,33.8,81,30.02,10.0,North,9.2,-,N/A,,Scattered Clouds,10,2012-11-09 04:34:00
10:53 PM,39.2,35.6,87,30.03,10.0,North,8.1,-,N/A,,Scattered Clouds,10,2012-11-09 04:53:00
11:14 PM,39.2,33.8,81,30.02,10.0,North,8.1,-,N/A,,Scattered Clouds,10,2012-11-09 05:14:00
11:34 PM,37.4,33.8,87,30.03,10.0,North,6.9,-,N/A,,Clear,10,2012-11-09 05:34:00
11:53 PM,37.4,33.8,87,30.03,10.0,North,8.1,-,N/A,,Clear,10,2012-11-09 05:53:00